• In Deutschland
  • Länderverzeichnis
  • Für 7 Tage
  • Wassertemperatur
  • Satellitenkarten
  • Wetterkarte
  • Widgets
  • user-avatar
    Anmelden

    Stündliche Wetter Sumgayit

    Heute, 26 April, Donnerstag

    Zeit Temperatur Niederschläge Wind Luftdruck Luftfeuchtigkeit
    00:00 +13°C° 0 mm 2 m/S 743 mmHg 79%
    01:00 +13°C° 0 mm 2 m/S 743 mmHg 78%
    02:00 +13°C° 0 mm 2 m/S 742 mmHg 78%
    03:00 +13°C° 0 mm 2 m/S 742 mmHg 77%
    04:00 +13°C° 0 mm 2 m/S 742 mmHg 75%
    05:00 +13°C° 0 mm 2 m/S 743 mmHg 73%
    06:00 +14°C° 0 mm 2 m/S 743 mmHg 71%
    07:00 +15°C° 0 mm 2 m/S 743 mmHg 65%
    08:00 +17°C° 0 mm 2 m/S 743 mmHg 60%
    09:00 +18°C° 0 mm 2 m/S 743 mmHg 54%
    10:00 +19°C° 0 mm 2 m/S 743 mmHg 51%
    11:00 +20°C° 0 mm 3 m/S 743 mmHg 48%
    12:00 +21°C° 0 mm 3 m/S 743 mmHg 45%
    13:00 +22°C° 0 mm 4 m/S 743 mmHg 45%
    14:00 +22°C° 0 mm 4 m/S 742 mmHg 44%
    15:00 +22°C° 0 mm 5 m/S 742 mmHg 44%
    16:00 +21°C° 0 mm 4 m/S 742 mmHg 47%
    17:00 +20°C° 0 mm 4 m/S 742 mmHg 49%
    18:00 +19°C° 0 mm 3 m/S 742 mmHg 52%
    19:00 +18°C° 0 mm 3 m/S 742 mmHg 54%
    20:00 +18°C° 0 mm 2 m/S 743 mmHg 57%
    21:00 +18°C° 0 mm 1 m/S 743 mmHg 59%
    22:00 +18°C° 0 mm 1 m/S 743 mmHg 60%
    23:00 +16°C° 0 mm 1 m/S 742 mmHg 60%

    Morgen, 27 April, Freitag

    Zeit Temperatur Niederschläge Wind Luftdruck Luftfeuchtigkeit
    00:00 +16°C° 0 mm 1 m/S 742 mmHg 60%
    01:00 +16°C° 0 mm 1 m/S 742 mmHg 59%
    02:00 +16°C° 0 mm 1 m/S 742 mmHg 59%
    03:00 +15°C° 0 mm 1 m/S 742 mmHg 59%
    04:00 +16°C° 0 mm 1 m/S 742 mmHg 58%
    05:00 +16°C° 0 mm 1 m/S 742 mmHg 57%
    06:00 +16°C° 0 mm 1 m/S 742 mmHg 56%
    07:00 +18°C° 0 mm 2 m/S 742 mmHg 50%
    08:00 +19°C° 0 mm 2 m/S 742 mmHg 44%
    09:00 +21°C° 0 mm 2 m/S 742 mmHg 38%
    10:00 +22°C° 0 mm 3 m/S 742 mmHg 35%
    11:00 +24°C° 0 mm 3 m/S 741 mmHg 33%
    12:00 +25°C° 0 mm 3 m/S 741 mmHg 30%
    13:00 +25°C° 0 mm 4 m/S 741 mmHg 30%
    14:00 +25°C° 0 mm 4 m/S 740 mmHg 29%
    15:00 +25°C° 0 mm 4 m/S 740 mmHg 29%
    16:00 +23°C° 0 mm 4 m/S 740 mmHg 32%
    17:00 +22°C° 0 mm 3 m/S 740 mmHg 35%
    18:00 +21°C° 0 mm 3 m/S 739 mmHg 38%
    19:00 +21°C° 0 mm 2 m/S 739 mmHg 39%
    20:00 +20°C° 0 mm 2 m/S 739 mmHg 39%
    21:00 +21°C° 0 mm 1 m/S 739 mmHg 40%
    22:00 +20°C° 0 mm 2 m/S 739 mmHg 40%
    23:00 +19°C° 0 mm 2 m/S 738 mmHg 40%

    übermorgen, 28 April, Samstag

    Zeit Temperatur Niederschläge Wind Luftdruck Luftfeuchtigkeit
    00:00 +19°C° 0 mm 2 m/S 738 mmHg 40%
    01:00 +18°C° 0 mm 2 m/S 737 mmHg 41%
    02:00 +18°C° 0 mm 2 m/S 737 mmHg 42%
    03:00 +17°C° 0 mm 3 m/S 737 mmHg 43%
    04:00 +18°C° 0 mm 2 m/S 737 mmHg 42%
    05:00 +18°C° 0 mm 2 m/S 737 mmHg 42%
    06:00 +18°C° 0 mm 2 m/S 737 mmHg 42%
    07:00 +20°C° 0 mm 2 m/S 738 mmHg 39%
    08:00 +21°C° 0 mm 3 m/S 738 mmHg 36%
    09:00 +24°C° 0 mm 3 m/S 739 mmHg 32%
    10:00 +23°C° 0 mm 4 m/S 739 mmHg 34%
    11:00 +24°C° 0 mm 6 m/S 739 mmHg 35%
    12:00 +26°C° 0 mm 8 m/S 739 mmHg 36%
    13:00 +24°C° 0 mm 8 m/S 739 mmHg 38%
    14:00 +24°C° 0 mm 9 m/S 739 mmHg 39%
    15:00 +24°C° 0 mm 10 m/S 739 mmHg 41%
    16:00 +23°C° 0 mm 10 m/S 740 mmHg 44%
    17:00 +22°C° 0 mm 9 m/S 740 mmHg 46%
    18:00 +21°C° 0 mm 9 m/S 740 mmHg 49%
    19:00 +21°C° 0 mm 9 m/S 741 mmHg 50%
    20:00 +21°C° 0 mm 9 m/S 741 mmHg 51%
    21:00 +19°C° 0 mm 9 m/S 742 mmHg 52%
    22:00 +20°C° 0 mm 8 m/S 742 mmHg 53%
    23:00 +20°C° 0 mm 7 m/S 742 mmHg 53%

    29 April, Sonntag

    Zeit Temperatur Niederschläge Wind Luftdruck Luftfeuchtigkeit
    00:00 +20°C° 0 mm 6 m/S 742 mmHg 54%
    01:00 +20°C° 0 mm 6 m/S 742 mmHg 55%
    02:00 +18°C° 0 mm 7 m/S 742 mmHg 57%
    03:00 +18°C° 0 mm 7 m/S 742 mmHg 58%
    04:00 +17°C° 0 mm 7 m/S 743 mmHg 59%
    05:00 +17°C° 0 mm 7 m/S 743 mmHg 59%
    06:00 +16°C° 0 mm 7 m/S 743 mmHg 60%
    07:00 +17°C° 0 mm 7 m/S 744 mmHg 57%
    08:00 +18°C° 0 mm 7 m/S 744 mmHg 53%
    09:00 +18°C° 0 mm 7 m/S 744 mmHg 49%
    10:00 +20°C° 0 mm 7 m/S 744 mmHg 48%
    11:00 +20°C° 0 mm 7 m/S 744 mmHg 47%
    12:00 +21°C° 0 mm 7 m/S 744 mmHg 46%
    13:00 +20°C° 0 mm 7 m/S 744 mmHg 46%
    14:00 +20°C° 0 mm 8 m/S 744 mmHg 46%
    15:00 +19°C° 0 mm 9 m/S 744 mmHg 46%
    16:00 +18°C° 0 mm 9 m/S 744 mmHg 47%
    17:00 +18°C° 0 mm 8 m/S 744 mmHg 49%
    18:00 +17°C° 0 mm 8 m/S 744 mmHg 50%
    19:00 +16°C° 0 mm 8 m/S 744 mmHg 52%
    20:00 +15°C° 0 mm 7 m/S 745 mmHg 54%
    21:00 +15°C° 0 mm 7 m/S 745 mmHg 55%
    22:00 +14°C° 0 mm 6 m/S 745 mmHg 57%
    23:00 +14°C° 0 mm 5 m/S 744 mmHg 59%

    30 April, Montag

    Zeit Temperatur Niederschläge Wind Luftdruck Luftfeuchtigkeit
    00:00 +13°C° 0 mm 5 m/S 744 mmHg 61%
    01:00 +13°C° 0 mm 4 m/S 744 mmHg 62%
    02:00 +13°C° 0 mm 4 m/S 744 mmHg 62%
    03:00 +12°C° 0 mm 4 m/S 744 mmHg 63%
    04:00 +12°C° 0 mm 4 m/S 744 mmHg 62%
    05:00 +13°C° 0 mm 4 m/S 744 mmHg 61%
    06:00 +13°C° 0 mm 3 m/S 744 mmHg 60%
    07:00 +14°C° 0 mm 3 m/S 744 mmHg 54%
    08:00 +16°C° 0 mm 3 m/S 744 mmHg 48%
    09:00 +18°C° 0 mm 3 m/S 744 mmHg 42%
    10:00 +18°C° 0 mm 3 m/S 744 mmHg 40%
    11:00 +19°C° 0 mm 3 m/S 744 mmHg 38%
    12:00 +20°C° 0 mm 3 m/S 744 mmHg 36%
    13:00 +21°C° 0 mm 3 m/S 743 mmHg 36%
    14:00 +21°C° 0 mm 4 m/S 743 mmHg 36%
    15:00 +21°C° 0 mm 4 m/S 743 mmHg 36%
    16:00 +20°C° 0 mm 4 m/S 743 mmHg 38%
    17:00 +19°C° 0 mm 3 m/S 743 mmHg 40%
    18:00 +18°C° 0 mm 3 m/S 743 mmHg 43%
    19:00 +18°C° 0 mm 2 m/S 743 mmHg 45%
    20:00 +17°C° 0 mm 2 m/S 743 mmHg 48%
    21:00 +16°C° 0 mm 1 m/S 743 mmHg 50%
    22:00 +16°C° 0 mm 1 m/S 743 mmHg 52%
    23:00 +15°C° 0 mm 1 m/S 742 mmHg 53%

    1 Mai, Dienstag

    Zeit Temperatur Niederschläge Wind Luftdruck Luftfeuchtigkeit
    00:00 +15°C° 0 mm 1 m/S 742 mmHg 54%
    01:00 +15°C° 0 mm 1 m/S 742 mmHg 55%
    02:00 +14°C° 0 mm 1 m/S 742 mmHg 55%
    03:00 +14°C° 0 mm 1 m/S 742 mmHg 56%
    04:00 +14°C° 0 mm 1 m/S 742 mmHg 54%
    05:00 +15°C° 0 mm 1 m/S 742 mmHg 52%
    06:00 +15°C° 0 mm 2 m/S 742 mmHg 50%
    07:00 +17°C° 0 mm 2 m/S 742 mmHg 46%
    08:00 +19°C° 0 mm 2 m/S 742 mmHg 42%
    09:00 +20°C° 0 mm 3 m/S 742 mmHg 37%
    10:00 +21°C° 0 mm 3 m/S 742 mmHg 35%
    11:00 +22°C° 0 mm 3 m/S 742 mmHg 33%
    12:00 +23°C° 0 mm 4 m/S 742 mmHg 31%
    13:00 +23°C° 0 mm 4 m/S 742 mmHg 29%
    14:00 +23°C° 0 mm 5 m/S 742 mmHg 28%
    15:00 +25°C° 0 mm 5 m/S 742 mmHg 27%
    16:00 +22°C° 0 mm 5 m/S 742 mmHg 29%
    17:00 +21°C° 0 mm 4 m/S 742 mmHg 30%
    18:00 +20°C° 0 mm 4 m/S 742 mmHg 32%
    19:00 +19°C° 0 mm 3 m/S 742 mmHg 35%
    20:00 +18°C° 0 mm 3 m/S 742 mmHg 38%
    21:00 +17°C° 0 mm 2 m/S 742 mmHg 41%
    22:00 +17°C° 0 mm 2 m/S 742 mmHg 41%
    23:00 +16°C° 0 mm 2 m/S 742 mmHg 42%
    Mehr zeigen